| time (UTC) | temp F | wind direction | speed MPH | gust MPH | rain 1hr in | rain 24hr in | rain mn in | humidity % | barometer mb |
| 20260906192038 | 87 | 134 | 5.0 | 11.0 | 0.00 | 0.00 | 0.00 | 72 | 1013.4 |
| 20260906191600 | 88 | 157 | 3.0 | 8.0 | 0.00 | 0.00 | 0.00 | 71 | 1013.4 |
| 20260906191038 | 88 | 154 | 2.0 | 6.0 | 0.00 | 0.00 | 0.00 | 72 | 1013.3 |
| 20260906190537 | 88 | 186 | 1.0 | 8.0 | 0.00 | 0.00 | 0.00 | 75 | 1013.3 |
| 20260906190114 | 88 | 146 | 3.0 | 11.0 | 0.00 | 0.00 | 0.00 | 74 | 1013.3 |
| 20260906185539 | 87 | 184 | 3.0 | 11.0 | 0.00 | 0.00 | 0.00 | 75 | 1013.4 |
| 20260906185035 | 88 | 182 | 3.0 | 6.0 | 0.00 | 0.00 | 0.00 | 75 | 1013.5 |
| 20260906184600 | 88 | 227 | 1.0 | 6.0 | 0.00 | 0.00 | 0.00 | 75 | 1013.4 |
| 20260906184037 | 88 | 177 | 1.0 | 5.0 | 0.00 | 0.00 | 0.00 | 74 | 1013.6 |
| 20260906183536 | 89 | 176 | 2.0 | 5.0 | 0.00 | 0.00 | 0.00 | 74 | 1013.6 |
| 20260906183108 | 88 | 261 | 1.0 | 4.0 | 0.00 | 0.00 | 0.00 | 71 | 1013.6 |
| 20260906182535 | 88 | 261 | 1.0 | 3.0 | 0.00 | 0.00 | 0.00 | 71 | 1013.6 |
| 20260906182038 | 88 | 261 | 2.0 | 4.0 | 0.00 | 0.00 | 0.00 | 72 | 1013.6 |
| 20260906181553 | 88 | 175 | 1.0 | 8.0 | 0.00 | 0.00 | 0.00 | 72 | 1013.8 |
| 20260906181035 | 88 | 167 | 1.0 | 9.0 | 0.00 | 0.00 | 0.00 | 72 | 1013.9 |
| 20260906180536 | 89 | 173 | 4.0 | 9.0 | 0.00 | 0.00 | 0.00 | 70 | 1013.9 |
| 20260906180114 | 89 | 29 | 3.0 | 5.0 | 0.00 | 0.00 | 0.00 | 69 | 1014.0 |
| 20260906175535 | 89 | 71 | 2.0 | 8.0 | 0.00 | 0.00 | 0.00 | 68 | 1014.1 |
| 20260906175037 | 89 | 20 | 5.0 | 8.0 | 0.00 | 0.00 | 0.00 | 68 | 1014.1 |
| 20260906174558 | 90 | 13 | 3.0 | 8.0 | 0.00 | 0.00 | 0.00 | 68 | 1014.2 |
| 20260906174039 | 90 | 103 | 0.0 | 3.0 | 0.00 | 0.00 | 0.00 | 67 | 1014.2 |
| 20260906173534 | 90 | 103 | 1.0 | 3.0 | 0.00 | 0.00 | 0.00 | 68 | 1014.2 |
| 20260906173102 | 90 | 0 | 1.0 | 3.0 | 0.00 | 0.00 | 0.00 | 67 | 1014.3 |
| 20260906172537 | 89 | 93 | 0.0 | 3.0 | 0.00 | 0.00 | 0.00 | 68 | 1014.3 |
| 20260906172036 | 89 | 93 | 1.0 | 3.0 | 0.00 | 0.00 | 0.00 | 67 | 1014.4 |
| 20260906171601 | 89 | 93 | 1.0 | 4.0 | 0.00 | 0.00 | 0.00 | 68 | 1014.4 |
| 20260906171037 | 89 | 96 | 1.0 | 4.0 | 0.00 | 0.00 | 0.00 | 67 | 1014.6 |
| 20260906170537 | 90 | 46 | 2.0 | 6.0 | 0.00 | 0.00 | 0.00 | 68 | 1014.6 |
| 20260906170127 | 90 | 46 | 2.0 | 6.0 | 0.00 | 0.00 | 0.00 | 68 | 1014.7 |
| 20260906165536 | 90 | 159 | 1.0 | 4.0 | 0.00 | 0.00 | 0.00 | 70 | 1014.7 |
| 20260906165037 | 90 | 73 | 2.0 | 8.0 | 0.00 | 0.00 | 0.00 | 68 | 1014.7 |
| 20260906164600 | 90 | 0 | 4.0 | 8.0 | 0.00 | 0.00 | 0.00 | 68 | 1014.7 |
| 20260906164035 | 90 | 360 | 3.0 | 8.0 | 0.00 | 0.00 | 0.00 | 69 | 1014.7 |
| 20260906163536 | 90 | 107 | 2.0 | 8.0 | 0.00 | 0.00 | 0.00 | 70 | 1014.8 |
| 20260906163058 | 90 | 54 | 3.0 | 8.0 | 0.00 | 0.00 | 0.00 | 70 | 1014.9 |
| 20260906162535 | 90 | 16 | 3.0 | 6.0 | 0.00 | 0.00 | 0.00 | 71 | 1015.0 |
| 20260906162035 | 90 | 38 | 1.0 | 7.0 | 0.00 | 0.00 | 0.00 | 71 | 1015.1 |
| 20260906161551 | 89 | 0 | 3.0 | 7.0 | 0.00 | 0.00 | 0.00 | 72 | 1015.1 |
| 20260906161035 | 89 | 44 | 3.0 | 7.0 | 0.00 | 0.00 | 0.00 | 74 | 1015.1 |
| 20260906160535 | 88 | 350 | 3.0 | 6.0 | 0.00 | 0.00 | 0.00 | 73 | 1015.1 |
| 20260906160058 | 88 | 0 | 2.0 | 5.0 | 0.00 | 0.00 | 0.00 | 72 | 1015.1 |
| 20260906155620 | 88 | 0 | 1.0 | 5.0 | 0.00 | 0.00 | 0.00 | 73 | 1015.1 |
| 20260906155038 | 87 | 202 | 1.0 | 4.0 | 0.00 | 0.00 | 0.00 | 76 | 1015.1 |
| 20260906154606 | 87 | 0 | 1.0 | 6.0 | 0.00 | 0.00 | 0.00 | 77 | 1015.2 |
| 20260906154036 | 86 | 246 | 2.0 | 6.0 | 0.00 | 0.00 | 0.00 | 78 | 1015.1 |
| 20260906153538 | 86 | 346 | 2.0 | 5.0 | 0.00 | 0.00 | 0.00 | 79 | 1015.1 |
| 20260906153059 | 86 | 355 | 1.0 | 5.0 | 0.00 | 0.00 | 0.00 | 80 | 1015.1 |
| 20260906152537 | 86 | 229 | 2.0 | 5.0 | 0.00 | 0.00 | 0.00 | 80 | 1015.1 |
| 20260906152037 | 86 | 0 | 1.0 | 5.0 | 0.00 | 0.00 | 0.00 | 81 | 1015.1 |
| 20260906151612 | 85 | 0 | 0.0 | 5.0 | 0.00 | 0.00 | 0.00 | 83 | 1015.1 |
| 20260906151036 | 85 | 0 | 0.0 | 5.0 | 0.00 | 0.00 | 0.00 | 83 | 1015.1 |
| 20260906150537 | 85 | 156 | 0.0 | 7.0 | 0.00 | 0.00 | 0.00 | 84 | 1015.0 |
| 20260906150106 | 84 | 0 | 2.0 | 7.0 | 0.00 | 0.00 | 0.00 | 85 | 1015.0 |
| 20260906145536 | 84 | 163 | 1.0 | 5.0 | 0.00 | 0.00 | 0.00 | 86 | 1015.0 |
| 20260906145037 | 84 | 163 | 0.0 | 4.0 | 0.00 | 0.00 | 0.00 | 87 | 1014.9 |
| 20260906144602 | 83 | 0 | 0.0 | 5.0 | 0.00 | 0.00 | 0.00 | 88 | 1015.0 |
| 20260906144036 | 83 | 163 | 0.0 | 6.0 | 0.00 | 0.00 | 0.00 | 88 | 1015.0 |
| 20260906143537 | 82 | 173 | 1.0 | 6.0 | 0.00 | 0.00 | 0.00 | 90 | 1015.1 |
| 20260906143129 | 82 | 171 | 2.0 | 5.0 | 0.00 | 0.00 | 0.00 | 90 | 1015.2 |
| 20260906142537 | 81 | 177 | 0.0 | 5.0 | 0.00 | 0.00 | 0.00 | 91 | 1015.1 |
| 20260906142038 | 81 | 161 | 1.0 | 5.0 | 0.00 | 0.00 | 0.00 | 91 | 1015.1 |
| 20260906141607 | 81 | 161 | 2.0 | 5.0 | 0.00 | 0.00 | 0.00 | 91 | 1015.1 |
| 20260906141037 | 80 | 101 | 2.0 | 4.0 | 0.00 | 0.00 | 0.00 | 92 | 1015.1 |
| 20260906140537 | 80 | 101 | 1.0 | 4.0 | 0.00 | 0.00 | 0.00 | 93 | 1015.1 |
| 20260906135537 | 79 | 101 | 1.0 | 4.0 | 0.00 | 0.00 | 0.00 | 94 | 1015.1 |
| 20260906135038 | 79 | 101 | 0.0 | 4.0 | 0.00 | 0.00 | 0.00 | 94 | 1015.1 |
| 20260906134608 | 78 | 101 | 2.0 | 4.0 | 0.00 | 0.00 | 0.00 | 94 | 1015.1 |
| 20260906134037 | 78 | 101 | 1.0 | 4.0 | 0.00 | 0.00 | 0.00 | 95 | 1015.1 |
| 20260906133537 | 78 | 0 | 1.0 | 4.0 | 0.00 | 0.00 | 0.00 | 95 | 1015.0 |
| 20260906133054 | 77 | 0 | 0.0 | 0.0 | 0.00 | 0.00 | 0.00 | 96 | 1015.0 |
| 20260906132539 | 77 | 0 | 0.0 | 0.0 | 0.00 | 0.00 | 0.00 | 96 | 1014.9 |
| 20260906132036 | 77 | 0 | 0.0 | 0.0 | 0.00 | 0.00 | 0.00 | 96 | 1014.7 |
| 20260906131552 | 76 | 0 | 0.0 | 0.0 | 0.00 | 0.00 | 0.00 | 96 | 1014.7 |
| 20260906131037 | 76 | 0 | 0.0 | 0.0 | 0.00 | 0.00 | 0.00 | 96 | 1014.7 |
| 20260906130537 | 76 | 0 | 0.0 | 0.0 | 0.00 | 0.00 | 0.00 | 96 | 1014.7 |
| 20260906130103 | 75 | 0 | 0.0 | 0.0 | 0.00 | 0.00 | 0.00 | 96 | 1014.7 |
| 20260906125538 | 75 | 0 | 0.0 | 0.0 | 0.00 | 0.00 | 0.00 | 96 | 1014.6 |
| 20260906125040 | 75 | 0 | 0.0 | 0.0 | 0.00 | 0.00 | 0.00 | 96 | 1014.5 |
| 20260906124555 | 75 | 0 | 0.0 | 0.0 | 0.00 | 0.00 | 0.00 | 96 | 1014.4 |
| 20260906124039 | 75 | 0 | 0.0 | 0.0 | 0.00 | 0.00 | 0.00 | 96 | 1014.5 |
| 20260906123539 | 74 | 0 | 0.0 | 0.0 | 0.00 | 0.00 | 0.00 | 96 | 1014.4 |
| 20260906123136 | 74 | 0 | 0.0 | 0.0 | 0.00 | 0.00 | 0.00 | 95 | 1014.5 |
| 20260906122539 | 74 | 0 | 0.0 | 0.0 | 0.00 | 0.00 | 0.00 | 95 | 1014.4 |
| 20260906122039 | 74 | 0 | 0.0 | 0.0 | 0.00 | 0.00 | 0.00 | 95 | 1014.3 |
| 20260906121558 | 74 | 0 | 0.0 | 0.0 | 0.00 | 0.00 | 0.00 | 95 | 1014.2 |
| 20260906121039 | 74 | 0 | 0.0 | 0.0 | 0.00 | 0.00 | 0.00 | 95 | 1014.1 |
| 20260906120538 | 74 | 0 | 0.0 | 0.0 | 0.00 | 0.00 | 0.00 | 95 | 1014.1 |
| 20260906120058 | 74 | 0 | 0.0 | 0.0 | 0.00 | 0.00 | 0.00 | 95 | 1014.1 |
| 20260906115536 | 74 | 0 | 0.0 | 0.0 | 0.00 | 0.00 | 0.00 | 95 | 1014.1 |
| 20260906115038 | 74 | 0 | 0.0 | 0.0 | 0.00 | 0.00 | 0.00 | 95 | 1014.1 |
| 20260906114601 | 74 | 0 | 0.0 | 0.0 | 0.00 | 0.00 | 0.00 | 95 | 1014.0 |
| 20260906114039 | 74 | 0 | 0.0 | 0.0 | 0.00 | 0.00 | 0.00 | 95 | 1014.0 |
| 20260906113539 | 74 | 0 | 0.0 | 0.0 | 0.00 | 0.00 | 0.00 | 95 | 1013.9 |
| 20260906113100 | 74 | 0 | 0.0 | 0.0 | 0.00 | 0.00 | 0.00 | 95 | 1013.9 |
| 20260906112539 | 74 | 0 | 0.0 | 0.0 | 0.00 | 0.00 | 0.00 | 95 | 1013.6 |
| 20260906112039 | 74 | 0 | 0.0 | 1.0 | 0.00 | 0.00 | 0.00 | 95 | 1013.5 |
| 20260906111557 | 74 | 0 | 0.0 | 1.0 | 0.00 | 0.00 | 0.00 | 95 | 1013.5 |
| 20260906111038 | 74 | 0 | 0.0 | 0.0 | 0.00 | 0.00 | 0.00 | 95 | 1013.5 |
| 20260906110540 | 74 | 0 | 0.0 | 0.0 | 0.00 | 0.00 | 0.00 | 95 | 1013.4 |
| 20260906105539 | 74 | 0 | 0.0 | 0.0 | 0.00 | 0.00 | 0.00 | 95 | 1013.3 |
| 20260906105039 | 74 | 0 | 0.0 | 0.0 | 0.00 | 0.00 | 0.00 | 95 | 1013.3 |
| 20260906104554 | 74 | 0 | 0.0 | 0.0 | 0.00 | 0.00 | 0.00 | 95 | 1013.2 |
| 20260906104039 | 74 | 0 | 0.0 | 0.0 | 0.00 | 0.00 | 0.00 | 95 | 1013.2 |
| 20260906103539 | 74 | 0 | 0.0 | 0.0 | 0.00 | 0.00 | 0.00 | 95 | 1013.1 |
| 20260906103055 | 74 | 0 | 0.0 | 0.0 | 0.00 | 0.00 | 0.00 | 95 | 1013.2 |
| 20260906102538 | 74 | 0 | 0.0 | 0.0 | 0.00 | 0.00 | 0.00 | 95 | 1013.2 |
| 20260906102038 | 74 | 0 | 0.0 | 0.0 | 0.00 | 0.00 | 0.00 | 95 | 1013.2 |
| 20260906101557 | 74 | 0 | 0.0 | 0.0 | 0.00 | 0.00 | 0.00 | 95 | 1013.1 |
| 20260906101039 | 74 | 0 | 0.0 | 0.0 | 0.00 | 0.00 | 0.00 | 95 | 1013.1 |
| 20260906100539 | 74 | 0 | 0.0 | 0.0 | 0.00 | 0.00 | 0.00 | 95 | 1013.1 |
| 20260906100058 | 74 | 0 | 0.0 | 0.0 | 0.00 | 0.00 | 0.00 | 95 | 1013.1 |
| 20260906095536 | 74 | 0 | 0.0 | 0.0 | 0.00 | 0.00 | 0.00 | 95 | 1013.1 |
| 20260906095039 | 74 | 0 | 0.0 | 1.0 | 0.00 | 0.00 | 0.00 | 95 | 1013.1 |
| 20260906094604 | 74 | 0 | 0.0 | 2.0 | 0.00 | 0.00 | 0.00 | 95 | 1013.1 |
| 20260906094038 | 74 | 0 | 0.0 | 2.0 | 0.00 | 0.00 | 0.00 | 95 | 1013.1 |
| 20260906093539 | 74 | 101 | 0.0 | 2.0 | 0.00 | 0.00 | 0.00 | 95 | 1013.1 |
| 20260906093102 | 74 | 0 | 0.0 | 2.0 | 0.00 | 0.00 | 0.00 | 95 | 1013.1 |
| 20260906092538 | 74 | 0 | 0.0 | 2.0 | 0.00 | 0.00 | 0.00 | 95 | 1013.1 |
| 20260906092039 | 74 | 101 | 0.0 | 2.0 | 0.00 | 0.00 | 0.00 | 95 | 1013.1 |
| 20260906091607 | 74 | 0 | 0.0 | 1.0 | 0.00 | 0.00 | 0.00 | 94 | 1013.1 |
| 20260906091039 | 74 | 0 | 0.0 | 2.0 | 0.00 | 0.00 | 0.00 | 94 | 1013.1 |
| 20260906090538 | 74 | 0 | 0.0 | 2.0 | 0.00 | 0.00 | 0.00 | 94 | 1013.1 |
| 20260906090057 | 74 | 0 | 0.0 | 2.0 | 0.00 | 0.00 | 0.00 | 94 | 1013.2 |
| 20260906085539 | 74 | 101 | 0.0 | 2.0 | 0.00 | 0.00 | 0.00 | 94 | 1013.2 |
| 20260906085036 | 74 | 0 | 0.0 | 3.0 | 0.00 | 0.00 | 0.00 | 94 | 1013.2 |
| 20260906084605 | 74 | 0 | 1.0 | 3.0 | 0.00 | 0.00 | 0.00 | 94 | 1013.2 |
| 20260906084041 | 75 | 0 | 1.0 | 3.0 | 0.00 | 0.00 | 0.00 | 94 | 1013.2 |
| 20260906083537 | 75 | 0 | 0.0 | 3.0 | 0.00 | 0.00 | 0.00 | 94 | 1013.1 |
| 20260906083059 | 75 | 101 | 0.0 | 3.0 | 0.00 | 0.00 | 0.00 | 94 | 1013.2 |
| 20260906082538 | 75 | 101 | 0.0 | 3.0 | 0.00 | 0.00 | 0.00 | 94 | 1013.1 |
| 20260906082041 | 75 | 101 | 0.0 | 4.0 | 0.00 | 0.00 | 0.00 | 94 | 1013.2 |
| 20260906081600 | 75 | 101 | 0.0 | 4.0 | 0.00 | 0.00 | 0.00 | 94 | 1013.1 |
| 20260906081039 | 75 | 101 | 1.0 | 4.0 | 0.00 | 0.00 | 0.00 | 94 | 1013.2 |
| 20260906080537 | 75 | 101 | 1.0 | 4.0 | 0.00 | 0.00 | 0.00 | 94 | 1013.2 |
| 20260906075538 | 75 | 0 | 0.0 | 0.0 | 0.00 | 0.00 | 0.00 | 94 | 1013.1 |
| 20260906075040 | 75 | 0 | 0.0 | 0.0 | 0.00 | 0.00 | 0.00 | 94 | 1013.1 |
| 20260906074605 | 75 | 0 | 0.0 | 0.0 | 0.00 | 0.00 | 0.00 | 94 | 1013.1 |
| 20260906074039 | 75 | 0 | 0.0 | 0.0 | 0.00 | 0.00 | 0.00 | 94 | 1013.1 |
| 20260906073539 | 75 | 0 | 0.0 | 0.0 | 0.00 | 0.00 | 0.00 | 94 | 1013.2 |
| 20260906073059 | 75 | 0 | 0.0 | 0.0 | 0.00 | 0.00 | 0.00 | 94 | 1013.3 |
| 20260906072540 | 75 | 0 | 0.0 | 0.0 | 0.00 | 0.00 | 0.00 | 94 | 1013.4 |
| 20260906072039 | 75 | 0 | 0.0 | 0.0 | 0.00 | 0.00 | 0.00 | 94 | 1013.5 |
| 20260906071558 | 75 | 0 | 0.0 | 0.0 | 0.00 | 0.00 | 0.00 | 94 | 1013.4 |
| 20260906071037 | 75 | 0 | 0.0 | 0.0 | 0.00 | 0.00 | 0.00 | 94 | 1013.3 |
| 20260906070538 | 75 | 0 | 0.0 | 0.0 | 0.00 | 0.00 | 0.00 | 93 | 1013.4 |
| 20260906065539 | 75 | 0 | 0.0 | 0.0 | 0.00 | 0.00 | 0.00 | 93 | 1013.3 |
| 20260906065038 | 75 | 0 | 0.0 | 0.0 | 0.00 | 0.00 | 0.00 | 93 | 1013.4 |
| 20260906064554 | 75 | 0 | 0.0 | 0.0 | 0.00 | 0.00 | 0.00 | 93 | 1013.3 |
| 20260906064039 | 75 | 0 | 0.0 | 0.0 | 0.00 | 0.00 | 0.00 | 93 | 1013.2 |
| 20260906063539 | 75 | 0 | 0.0 | 0.0 | 0.00 | 0.00 | 0.00 | 93 | 1013.2 |
| 20260906063102 | 75 | 0 | 0.0 | 0.0 | 0.00 | 0.00 | 0.00 | 93 | 1013.2 |
| 20260906062538 | 75 | 0 | 0.0 | 0.0 | 0.00 | 0.00 | 0.00 | 93 | 1013.2 |
| 20260906062038 | 75 | 0 | 0.0 | 0.0 | 0.00 | 0.00 | 0.00 | 92 | 1013.3 |
| 20260906061603 | 75 | 0 | 0.0 | 0.0 | 0.00 | 0.00 | 0.00 | 92 | 1013.3 |
| 20260906061039 | 75 | 0 | 0.0 | 0.0 | 0.00 | 0.00 | 0.00 | 93 | 1013.4 |
| 20260906060539 | 75 | 0 | 0.0 | 0.0 | 0.00 | 0.00 | 0.00 | 93 | 1013.4 |
| 20260906055539 | 75 | 0 | 0.0 | 0.0 | 0.00 | 0.00 | 0.00 | 92 | 1013.3 |
| 20260906055036 | 75 | 0 | 0.0 | 0.0 | 0.00 | 0.00 | 0.00 | 92 | 1013.4 |
| 20260906054605 | 75 | 0 | 0.0 | 0.0 | 0.00 | 0.00 | 0.00 | 92 | 1013.3 |
| 20260906054040 | 76 | 0 | 0.0 | 0.0 | 0.00 | 0.00 | 0.00 | 92 | 1013.4 |
| 20260906053538 | 76 | 0 | 0.0 | 0.0 | 0.00 | 0.00 | 0.00 | 92 | 1013.4 |
| 20260906053109 | 76 | 0 | 0.0 | 0.0 | 0.00 | 0.00 | 0.00 | 92 | 1013.3 |
| 20260906052544 | 75 | 0 | 0.0 | 0.0 | 0.00 | 0.00 | 0.00 | 92 | 1013.3 |
| 20260906052039 | 76 | 0 | 0.0 | 0.0 | 0.00 | 0.00 | 0.00 | 92 | 1013.3 |
| 20260906051602 | 76 | 0 | 0.0 | 0.0 | 0.00 | 0.00 | 0.00 | 92 | 1013.4 |
| 20260906051039 | 76 | 0 | 0.0 | 0.0 | 0.00 | 0.00 | 0.00 | 92 | 1013.3 |
| 20260906050542 | 76 | 0 | 0.0 | 0.0 | 0.00 | 0.00 | 0.00 | 92 | 1013.4 |
| 20260906050101 | 76 | 0 | 0.0 | 0.0 | 0.00 | 0.00 | 0.00 | 91 | 1013.4 |
| 20260906045538 | 76 | 0 | 0.0 | 0.0 | 0.00 | 0.00 | 0.00 | 91 | 1013.3 |
| 20260906045040 | 76 | 0 | 0.0 | 0.0 | 0.00 | 0.00 | 0.00 | 91 | 1013.4 |
| 20260906044602 | 76 | 0 | 0.0 | 0.0 | 0.00 | 0.00 | 0.00 | 92 | 1013.4 |
| 20260906044039 | 76 | 0 | 0.0 | 0.0 | 0.00 | 0.00 | 0.00 | 92 | 1013.4 |
| 20260906043538 | 76 | 0 | 0.0 | 0.0 | 0.00 | 0.00 | 0.00 | 91 | 1013.3 |
| 20260906043102 | 76 | 0 | 0.0 | 0.0 | 0.00 | 0.00 | 0.00 | 91 | 1013.4 |
| 20260906042539 | 76 | 0 | 0.0 | 0.0 | 0.00 | 0.00 | 0.00 | 90 | 1013.4 |
| 20260906042038 | 76 | 0 | 0.0 | 0.0 | 0.00 | 0.00 | 0.00 | 91 | 1013.5 |
| 20260906041603 | 76 | 0 | 0.0 | 0.0 | 0.00 | 0.00 | 0.00 | 91 | 1013.4 |
| 20260906041040 | 76 | 0 | 0.0 | 0.0 | 0.00 | 0.00 | 0.00 | 91 | 1013.5 |
| 20260906040538 | 77 | 0 | 0.0 | 0.0 | 0.00 | 0.00 | 0.00 | 91 | 1013.4 |
| 20260906040115 | 77 | 0 | 0.0 | 0.0 | 0.00 | 0.00 | 0.00 | 90 | 1013.4 |
| 20260906035541 | 77 | 0 | 0.0 | 0.0 | 0.00 | 0.00 | 0.00 | 91 | 1013.5 |
| 20260906035041 | 77 | 0 | 0.0 | 0.0 | 0.00 | 0.00 | 0.00 | 90 | 1013.5 |
| 20260906034607 | 77 | 0 | 0.0 | 0.0 | 0.00 | 0.00 | 0.00 | 90 | 1013.5 |
| 20260906034038 | 77 | 0 | 0.0 | 0.0 | 0.00 | 0.00 | 0.00 | 90 | 1013.5 |
| 20260906033539 | 77 | 0 | 0.0 | 0.0 | 0.00 | 0.00 | 0.00 | 90 | 1013.5 |
| 20260906033111 | 77 | 0 | 0.0 | 0.0 | 0.00 | 0.00 | 0.00 | 90 | 1013.5 |
| 20260906032538 | 77 | 0 | 0.0 | 0.0 | 0.00 | 0.00 | 0.00 | 89 | 1013.3 |
| 20260906032040 | 77 | 0 | 0.0 | 0.0 | 0.00 | 0.00 | 0.00 | 89 | 1013.3 |
| 20260906031606 | 78 | 0 | 0.0 | 0.0 | 0.00 | 0.00 | 0.00 | 89 | 1013.2 |
| 20260906031039 | 78 | 0 | 0.0 | 0.0 | 0.00 | 0.00 | 0.00 | 89 | 1013.2 |
| 20260906030539 | 78 | 0 | 0.0 | 0.0 | 0.00 | 0.00 | 0.00 | 89 | 1013.2 |
| 20260906030104 | 78 | 0 | 0.0 | 0.0 | 0.00 | 0.00 | 0.00 | 89 | 1013.1 |
| 20260906025540 | 78 | 0 | 0.0 | 1.0 | 0.00 | 0.00 | 0.00 | 89 | 1013.2 |
| 20260906025039 | 78 | 0 | 0.0 | 3.0 | 0.00 | 0.00 | 0.00 | 89 | 1013.3 |
| 20260906024603 | 78 | 0 | 0.0 | 4.0 | 0.00 | 0.00 | 0.00 | 89 | 1013.2 |
| 20260906024039 | 78 | 101 | 1.0 | 4.0 | 0.00 | 0.00 | 0.00 | 89 | 1013.1 |
| 20260906023540 | 78 | 101 | 2.0 | 4.0 | 0.00 | 0.00 | 0.00 | 88 | 1013.2 |
| 20260906023100 | 78 | 101 | 1.0 | 5.0 | 0.00 | 0.00 | 0.00 | 88 | 1013.2 |
| 20260906022539 | 78 | 101 | 1.0 | 5.0 | 0.00 | 0.00 | 0.00 | 88 | 1013.2 |
| 20260906022041 | 78 | 101 | 3.0 | 10.0 | 0.00 | 0.00 | 0.00 | 88 | 1013.2 |
| 20260906021606 | 79 | 128 | 3.0 | 10.0 | 0.00 | 0.00 | 0.00 | 88 | 1013.0 |
| 20260906021038 | 79 | 141 | 2.0 | 8.0 | 0.00 | 0.00 | 0.00 | 88 | 1013.0 |
| 20260906020539 | 79 | 152 | 3.0 | 7.0 | 0.00 | 0.00 | 0.00 | 87 | 1013.0 |
| 20260906020109 | 79 | 113 | 2.0 | 6.0 | 0.00 | 0.00 | 0.00 | 87 | 1013.0 |
| 20260906015540 | 79 | 135 | 2.0 | 6.0 | 0.00 | 0.00 | 0.00 | 87 | 1012.8 |
| 20260906015039 | 79 | 128 | 2.0 | 4.0 | 0.00 | 0.00 | 0.00 | 86 | 1012.8 |
| 20260906014602 | 79 | 150 | 1.0 | 4.0 | 0.00 | 0.00 | 0.00 | 86 | 1012.8 |
| 20260906014041 | 79 | 95 | 1.0 | 4.0 | 0.00 | 0.00 | 0.00 | 86 | 1012.8 |
| 20260906013542 | 80 | 95 | 1.0 | 6.0 | 0.00 | 0.00 | 0.00 | 85 | 1012.8 |
| 20260906013110 | 80 | 124 | 1.0 | 6.0 | 0.00 | 0.00 | 0.00 | 85 | 1012.5 |
| 20260906012540 | 80 | 124 | 2.0 | 6.0 | 0.00 | 0.00 | 0.00 | 85 | 1012.5 |
| 20260906012040 | 80 | 0 | 2.0 | 5.0 | 0.00 | 0.00 | 0.00 | 84 | 1012.5 |
| 20260906011602 | 80 | 142 | 1.0 | 5.0 | 0.00 | 0.00 | 0.00 | 84 | 1012.4 |
| 20260906011038 | 80 | 142 | 3.0 | 5.0 | 0.00 | 0.00 | 0.00 | 84 | 1012.3 |
| 20260906010539 | 81 | 173 | 2.0 | 5.0 | 0.00 | 0.00 | 0.00 | 83 | 1012.3 |
| 20260906005539 | 81 | 138 | 2.0 | 7.0 | 0.00 | 0.00 | 0.00 | 82 | 1012.5 |
| 20260906005039 | 81 | 135 | 3.0 | 7.0 | 0.00 | 0.00 | 0.00 | 82 | 1012.5 |
| 20260906004607 | 82 | 130 | 3.0 | 8.0 | 0.00 | 0.00 | 0.00 | 81 | 1012.6 |
| 20260906004039 | 82 | 120 | 2.0 | 8.0 | 0.00 | 0.00 | 0.00 | 81 | 1012.6 |
| 20260906003537 | 82 | 138 | 3.0 | 8.0 | 0.00 | 0.00 | 0.00 | 80 | 1012.6 |
| 20260906003102 | 82 | 101 | 2.0 | 8.0 | 0.00 | 0.00 | 0.00 | 80 | 1012.6 |
| 20260906002540 | 82 | 131 | 2.0 | 9.0 | 0.00 | 0.00 | 0.00 | 80 | 1012.6 |
| 20260906002036 | 82 | 103 | 3.0 | 9.0 | 0.00 | 0.00 | 0.00 | 80 | 1012.6 |
| 20260906001554 | 83 | 162 | 4.0 | 8.0 | 0.00 | 0.00 | 0.00 | 79 | 1012.7 |
| 20260906001037 | 83 | 153 | 4.0 | 8.0 | 0.00 | 0.00 | 0.00 | 79 | 1012.8 |
| 20260906000535 | 83 | 91 | 4.0 | 8.0 | 0.00 | 0.00 | 0.00 | 79 | 1012.9 |
| 20260906000106 | 83 | 149 | 3.0 | 8.0 | 0.00 | 0.00 | 0.00 | 79 | 1013.0 |
| 20260905235536 | 83 | 134 | 3.0 | 8.0 | 0.00 | 0.00 | 0.00 | 78 | 1013.0 |
| 20260905235036 | 83 | 106 | 2.0 | 8.0 | 0.00 | 0.00 | 0.00 | 79 | 1013.0 |
| 20260905234557 | 83 | 121 | 3.0 | 8.0 | 0.00 | 0.00 | 0.00 | 78 | 1013.0 |
| 20260905234036 | 83 | 138 | 3.0 | 8.0 | 0.00 | 0.00 | 0.00 | 79 | 1013.0 |
| 20260905233536 | 83 | 150 | 4.0 | 9.0 | 0.00 | 0.00 | 0.00 | 79 | 1012.9 |
| 20260905233056 | 83 | 138 | 3.0 | 9.0 | 0.00 | 0.00 | 0.00 | 79 | 1012.9 |
| 20260905232536 | 83 | 145 | 3.0 | 8.0 | 0.00 | 0.00 | 0.00 | 79 | 1012.8 |
| 20260905232036 | 83 | 150 | 4.0 | 8.0 | 0.00 | 0.00 | 0.00 | 79 | 1012.8 |
| 20260905231600 | 83 | 136 | 3.0 | 9.0 | 0.00 | 0.00 | 0.00 | 80 | 1012.9 |
| 20260905231035 | 83 | 84 | 4.0 | 9.0 | 0.00 | 0.00 | 0.00 | 80 | 1012.8 |
| 20260905230536 | 84 | 0 | 4.0 | 9.0 | 0.00 | 0.00 | 0.00 | 80 | 1012.8 |
| 20260905230104 | 84 | 144 | 3.0 | 9.0 | 0.00 | 0.00 | 0.00 | 80 | 1012.7 |
| 20260905225536 | 84 | 107 | 4.0 | 8.0 | 0.00 | 0.00 | 0.00 | 79 | 1012.7 |
| 20260905225036 | 84 | 140 | 5.0 | 8.0 | 0.00 | 0.00 | 0.00 | 79 | 1012.7 |
| 20260905224555 | 84 | 140 | 4.0 | 8.0 | 0.00 | 0.00 | 0.00 | 78 | 1012.7 |
| 20260905224035 | 84 | 149 | 3.0 | 8.0 | 0.00 | 0.00 | 0.00 | 78 | 1012.6 |
| 20260905223537 | 84 | 113 | 3.0 | 9.0 | 0.00 | 0.00 | 0.00 | 78 | 1012.6 |
| 20260905223100 | 84 | 125 | 3.0 | 9.0 | 0.00 | 0.00 | 0.00 | 78 | 1012.8 |
| 20260905222537 | 84 | 145 | 4.0 | 9.0 | 0.00 | 0.00 | 0.00 | 78 | 1012.8 |
| 20260905222038 | 84 | 169 | 3.0 | 10.0 | 0.00 | 0.00 | 0.00 | 79 | 1012.9 |
| 20260905221603 | 84 | 127 | 3.0 | 11.0 | 0.00 | 0.00 | 0.00 | 78 | 1012.9 |
| 20260905221036 | 84 | 94 | 3.0 | 13.0 | 0.00 | 0.00 | 0.00 | 78 | 1013.0 |
| 20260905220536 | 84 | 112 | 5.0 | 13.0 | 0.00 | 0.00 | 0.00 | 76 | 1013.0 |
| 20260905220100 | 85 | 134 | 5.0 | 11.0 | 0.00 | 0.00 | 0.00 | 75 | 1013.2 |
| 20260905215536 | 85 | 11 | 3.0 | 10.0 | 0.00 | 0.00 | 0.00 | 75 | 1012.9 |
| 20260905215035 | 85 | 57 | 3.0 | 10.0 | 0.00 | 0.00 | 0.00 | 75 | 1012.9 |
| 20260905214602 | 85 | 19 | 5.0 | 10.0 | 0.00 | 0.00 | 0.00 | 74 | 1012.8 |
| 20260905214035 | 85 | 32 | 5.0 | 9.0 | 0.00 | 0.00 | 0.00 | 74 | 1012.8 |
| 20260905213536 | 85 | 51 | 4.0 | 11.0 | 0.00 | 0.00 | 0.00 | 74 | 1012.7 |
| 20260905213102 | 85 | 74 | 6.0 | 11.0 | 0.00 | 0.00 | 0.00 | 73 | 1012.6 |
| 20260905212535 | 85 | 49 | 5.0 | 10.0 | 0.00 | 0.00 | 0.00 | 73 | 1012.5 |
| 20260905212116 | 86 | 62 | 5.0 | 12.0 | 0.00 | 0.00 | 0.00 | 73 | 1012.6 |
| 20260905211559 | 86 | 34 | 5.0 | 14.0 | 0.00 | 0.00 | 0.00 | 73 | 1012.7 |
| 20260905211036 | 86 | 70 | 7.0 | 14.0 | 0.00 | 0.00 | 0.00 | 72 | 1012.8 |
| 20260905210538 | 87 | 46 | 3.0 | 13.0 | 0.00 | 0.00 | 0.00 | 71 | 1012.9 |
| 20260905210115 | 87 | 74 | 5.0 | 13.0 | 0.00 | 0.00 | 0.00 | 70 | 1012.8 |
| 20260905205536 | 88 | 76 | 5.0 | 20.0 | 0.00 | 0.00 | 0.00 | 69 | 1012.9 |
| 20260905205038 | 90 | 53 | 11.0 | 20.0 | 0.00 | 0.00 | 0.00 | 65 | 1012.9 |
| 20260905204604 | 92 | 31 | 2.0 | 6.0 | 0.00 | 0.00 | 0.00 | 61 | 1012.7 |
| 20260905204035 | 92 | 49 | 1.0 | 3.0 | 0.00 | 0.00 | 0.00 | 61 | 1012.6 |
| 20260905203535 | 92 | 0 | 1.0 | 3.0 | 0.00 | 0.00 | 0.00 | 60 | 1012.5 |
| 20260905203101 | 92 | 49 | 1.0 | 4.0 | 0.00 | 0.00 | 0.00 | 60 | 1012.7 |
| 20260905202538 | 92 | 49 | 0.0 | 6.0 | 0.00 | 0.00 | 0.00 | 61 | 1012.5 |
| 20260905202036 | 92 | 49 | 2.0 | 6.0 | 0.00 | 0.00 | 0.00 | 61 | 1012.6 |
| 20260905201600 | 92 | 50 | 2.0 | 6.0 | 0.00 | 0.00 | 0.00 | 61 | 1012.6 |
| 20260905201036 | 92 | 347 | 3.0 | 8.0 | 0.00 | 0.00 | 0.00 | 60 | 1012.6 |
| 20260905200536 | 92 | 316 | 2.0 | 8.0 | 0.00 | 0.00 | 0.00 | 62 | 1012.7 |
| 20260905200053 | 92 | 306 | 3.0 | 10.0 | 0.00 | 0.00 | 0.00 | 61 | 1012.7 |
| 20260905195535 | 92 | 39 | 5.0 | 10.0 | 0.00 | 0.00 | 0.00 | 62 | 1012.9 |
| 20260905195035 | 92 | 37 | 5.0 | 9.0 | 0.00 | 0.00 | 0.00 | 63 | 1012.9 |
| 20260905194614 | 91 | 355 | 3.0 | 8.0 | 0.00 | 0.00 | 0.00 | 63 | 1012.9 |
| 20260905194036 | 91 | 24 | 5.0 | 10.0 | 0.00 | 0.00 | 0.00 | 63 | 1012.9 |
| 20260905193536 | 91 | 35 | 7.0 | 10.0 | 0.00 | 0.00 | 0.00 | 63 | 1012.9 |
| 20260905193059 | 92 | 44 | 4.0 | 9.0 | 0.00 | 0.00 | 0.00 | 63 | 1012.9 |
| 20260905192536 | 92 | 355 | 5.0 | 9.0 | 0.00 | 0.00 | 0.00 | 62 | 1013.0 |